Location: Temple Hill
(37.3073°N, 88.6303°W)
Time: 16:25:20
(UTC+00:00)

SMAP - Pass Details

Date: 23 November 2020
Orbit: 681 x 683 km, 98.1° (Epoch: 20 January)

Event Time Altitude Azimuth Distance (km) Brightness Sun altitude
Rises 23:30:58 0° 171° (S) 3,028 6.5 -10.4°
Reaches altitude 10° 23:33:12 10° 173° (S) 2,117 5.7 -10.8°
Maximum altitude 23:37:50 72° 257° (WSW) 719 3.4 -11.7°
Drops below altitude 10° 23:42:30 10° 343° (NNW) 2,134 5.6 -12.6°
Sets 23:44:45 0° 346° (NNW) 3,053 6.4 -13.0°
